Content
SEND FEEDBACK

Daily
Averages
Monthly
Summary
United States of America

CASTLE HAYNE, NORTH CAROLINA


Home > North America > United States > North Carolina
Elevation: 35 feet     Latitude: 34 19N     Longitude: 077 55W

WEATHER
 
SELECT A DAY
Number of Records: 208,565;   Date Range: 1/1/95 - 7/7/14
 
SHARE

PRINT THIS DATA

[ ← Previous Day ]
WEATHER ALMANAC - JANUARY 11, 2013
[ Next Day → ]
[ °C ]   °F
Weather ElementAverageHighLow
Temperature63.2 °F71.6 °F (2:53 pm)48 °F (1:53 am)
Dewpoint59.9 °F66.2 °F (2:10 pm)39.9 °F (1:53 am)
Humidity89 %94 % (11:58 am)74 % (1:53 am)
Barometer30.25 in30.39 in (1:53 am)30.17 in (11:53 pm)
Wind Speed4.2 mph10.4 mph (3:53 pm)
Weather ElementAverage
Visibility6.9 mi
Wind DirectionESE (124.6 °)

Weather ElementTotal
Precipitation1.55 in
Heating Degree Days5.2 (Base 65)
Growing Degree Days9.8 (Base 50)
Averaged from 41 records on January 11, 2013
WEATHER CONDITIONS BREAKOUT
WIND DIRECTION BREAKOUT
WEATHER BY HOUR - JANUARY 11, 2013
[ °C ]   °F
Local TimeTemperatureDewpointHumidityBarometerVisibilityWind DirectionWind SpeedGust SpeedPrecipitationEventsConditions
1:53 AM48.0 °F39.9 °F74 %30.39 in10.0 miENE (60°)4.6 mphClear
2:53 AM48.9 °F42.1 °F77 %30.37 in10.0 miENE (60°)5.8 mphOvercast
3:53 AM53.1 °F46.9 °F80 %30.34 in10.0 miEast (80°)6.9 mphOvercast
4:53 AM53.1 °F48.0 °F83 %30.33 in10.0 miENE (70°)6.9 mphScattered Clouds
5:53 AM52.0 °F48.0 °F86 %30.32 in10.0 miEast (80°)4.6 mphClear
6:53 AM52.0 °F48.9 °F89 %30.32 in10.0 miENE (70°)3.5 mphPartly Cloudy
7:53 AM54.0 °F50.0 °F86 %30.32 in10.0 miEast (80°)6.9 mphMostly Cloudy
8:53 AM57.9 °F53.1 °F84 %30.33 in10.0 miCalmOvercast
9:53 AM62.1 °F55.9 °F80 %30.33 in10.0 miCalmOvercast
10:53 AM62.1 °F57.9 °F86 %30.30 in4.0 miCalm0.00 inRainLight Rain
11:32 AM62.6 °F59.0 °F88 %30.28 in2.5 miSW (230°)4.6 mph0.02 inRainLight Rain
11:35 AM62.6 °F59.0 °F88 %30.28 in1.2 miVariable3.5 mph0.05 inRainHeavy Rain
11:44 AM64.4 °F60.8 °F88 %30.27 in2.0 miSSE (150°)5.8 mph0.08 inRainLight Rain
11:53 AM64.0 °F62.1 °F93 %30.27 in2.0 miSSE (160°)4.6 mph0.10 inRainRain
11:58 AM64.4 °F62.6 °F94 %30.26 in1.2 miSSE (150°)5.8 mph0.03 inRainHeavy Rain
12:09 PM64.4 °F62.6 °F94 %30.26 in2.5 miCalm0.12 inRainLight Rain
12:16 PM66.2 °F64.4 °F94 %30.26 in10.0 miSW (230°)3.5 mph0.12 inRainLight Rain
12:38 PM66.2 °F64.4 °F94 %30.25 in10.0 miCalm0.12 inRainLight Rain
12:48 PM66.2 °F64.4 °F94 %30.24 in2.5 miCalm0.14 inRainRain
12:53 PM66.0 °F64.0 °F93 %30.25 in2.5 miCalm0.15 inRainLight Rain
1:01 PM66.2 °F64.4 °F94 %30.24 in2.5 miVariable3.5 mph0.03 inRainLight Rain
1:08 PM66.2 °F64.4 °F94 %30.23 in4.0 miSSW (200°)4.6 mph0.03 inRainLight Rain
1:15 PM66.2 °F64.4 °F94 %30.23 in1.8 miSouth (170°)4.6 mph0.05 inRainRain
1:23 PM66.2 °F64.4 °F94 %30.24 in2.0 miWest (260°)6.9 mph0.08 inRainLight Rain
1:31 PM66.2 °F64.4 °F94 %30.23 in6.0 miWest (260°)3.5 mph0.09 inRainLight Rain
1:41 PM66.2 °F64.4 °F94 %30.23 in1.8 miCalm0.10 inRainRain
1:50 PM66.2 °F64.4 °F94 %30.22 in3.0 miCalm0.12 inRainLight Rain
1:53 PM66.0 °F64.0 °F93 %30.22 in5.0 miSouth (170°)3.5 mph0.12 inRainLight Rain
2:10 PM68.0 °F66.2 °F94 %30.22 in10.0 miSouth (190°)4.6 mph0.00 inMostly Cloudy
2:17 PM69.8 °F66.2 °F88 %30.22 in10.0 miSSW (200°)6.9 mph0.00 inMostly Cloudy
2:53 PM71.6 °F66.2 °F83 %30.21 in10.0 miSSW (200°)5.8 mphMostly Cloudy
3:08 PM71.6 °F66.2 °F83 %30.20 in10.0 miSSW (200°)8.1 mphScattered Clouds
3:53 PM71.1 °F64.9 °F81 %30.19 in10.0 miSSW (200°)10.4 mphScattered Clouds
4:53 PM70.0 °F64.0 °F81 %30.19 in10.0 miSSW (200°)5.8 mphClear
5:53 PM66.0 °F63.0 °F90 %30.19 in10.0 miSouth (180°)5.8 mphClear
6:53 PM64.9 °F62.1 °F90 %30.20 in10.0 miSSW (210°)5.8 mphClear
7:53 PM64.0 °F62.1 °F93 %30.19 in10.0 miSSW (200°)5.8 mphClear
8:53 PM64.0 °F62.1 °F93 %30.19 in10.0 miSSW (210°)4.6 mphClear
9:53 PM64.0 °F61.0 °F90 %30.18 in10.0 miSSW (200°)5.8 mphClear
10:53 PM62.1 °F60.1 °F93 %30.19 in7.0 miSW (220°)3.5 mphClear
11:53 PM63.0 °F61.0 °F93 %30.17 in10.0 miSW (220°)5.8 mphMostly Cloudy
Hourly data recorded from KILM, located miles away from Castle Hayne, North Carolina







STORIES FROM OUR PARTNERS